Regional Weather Roundup
Issued by NWS

Home | Current Version | Previous Version | Text Only | Print | Product List | Glossary On
Versions: 1 2 3 4 5 6 7 8 9 10 11 12 13 14 15 16 17 18 19 20 21 22 23 24 25 26 27 28 29 30 31 32 33 34 35 36 37 38 39 40 41 42 43 44 45 46 47 48 49 50
000
ASUS42 KFFC 240110
RWRGA
WEATHER ROUNDUP FOR GEORGIA
NATIONAL WEATHER SERVICE PEACHTREE CITY GA
900 PM EDT WED AUG 23 2017

NOTE: "FAIR" INDICATES FEW OR NO CLOUDS BELOW 12,000 FEET WITH NO
SIGNIFICANT WEATHER AND/OR OBSTRUCTIONS TO VISIBILITY.

* = USE WITH CAUTION. THE STATIONS MARKED WITH AN ASTERISK MAY NOT
REPORT WEATHER SUCH AS PRECIPITATION, FOG, OR THUNDER AND ARE NOT
QUALITY CONTROLLED BY NWS.

THE REMARK "TC" DENOTES TEMPERATURE READING IN DEGREES CELSIUS.

GAZ001>058-240200-
NORTH GEORGIA

CITY           SKY/WX    TMP DP  RH WIND       PRES   REMARKS
ATLANTA        PTCLDY    82  65  56 NW7       29.90R
ATHENS         CLEAR     80  70  71 W5        29.87R
CHAMBLEE       CLEAR     80  64  58 NW6       29.90R
PEACHTREE CITY CLEAR     77  73  87 CALM      29.90R
ROME           CLEAR     80  67  64 NW5       29.90R
WEST ATLANTA   CLEAR     81  68  64 NW3       29.89R
GAINESVILLE    CLEAR     81  67  62 W7        29.92R
CARTERSVILLE   CLEAR     76  68  76 CALM      29.91R


CITY           SKY/WX    TMP DP  RH WIND       PRES   REMARKS
LAWRENCEVILLE* CLEAR     81  64  57 CALM      29.91R
MARIETTA       PTCLDY    81  64  56 NW5       29.91R
KENNESAW*      CLEAR     80  65  59 NW5       29.92R
CANTON*        CLEAR     77  68  73 NW5       29.93R
$$

GAZ059>098-102>109-240200-
CENTRAL GEORGIA

CITY           SKY/WX    TMP DP  RH WIND       PRES   REMARKS
AUGUSTA-BUSH   CLEAR     83  76  79 W3        29.82R HX  91
AUGUSTA-DANIEL CLEAR     88  69  53 W3        29.85R HX  92
COLUMBUS       PTCLDY    84  72  67 NW7       29.88R
MACON          PTCLDY    82  73  74 W5        29.85R
ROBINS AFB     CLEAR     88  73  62 W6        29.86R HX  96


CITY           SKY/WX    TMP DP  RH WIND       PRES   REMARKS
LAGRANGE*      PTCLDY    77  75  93 CALM      29.90R
SYLVANIA*      MOCLDY    82  74  78 CALM      29.85R
MILLEDGEVILLE* PTCLDY    81  75  83 CALM      29.85S
$$

GAZ099>101-110>166-240200-
SOUTH GEORGIA

CITY           SKY/WX    TMP DP  RH WIND       PRES   REMARKS
SAVANNAH       CLOUDY    79  77  94 S7        29.85R
VALDOSTA       PTCLDY    80  77  90 S5        29.86S
ALMA           CLEAR     84  76  76 S6        29.85S HX  93
ST SIMONS      PTCLDY    85  77  77 S9        29.87R HX  95
FT STEWART     CLOUDY    83  75  76 S5        29.83S HX  91
ALBANY         CLEAR     84  74  71 CALM      29.88R HX  91
HUNTER AFB     CLOUDY    82  76  82 S6        29.83R
MOODY AFB      PTCLDY    80  76  86 SE5       29.85S
BRUNSWICK      PTCLDY    82  75  78 S8        29.88R


CITY           SKY/WX    TMP DP  RH WIND       PRES   REMARKS
BAINBRIDGE*    CLEAR     82  79  89 SW3       29.87R HX  93
MOULTRIE*      CLEAR     82  73  74 CALM      29.87R
VIDALIA*       PTCLDY    82  75  78 SE3       29.85R
WAYCROSS*      CLEAR     83  76  80 SW3       29.86R HX  90
DOUGLAS*       CLEAR     81  73  78 CALM      29.87S
$$




USA.gov is the U.S. government's official web portal to all federal, state and local government web resources and services.